PST,Max TemperatureF,Mean TemperatureF,Min TemperatureF,Max Dew PointF,MeanDew PointF,Min DewpointF,Max Humidity, Mean Humidity, Min Humidity, Max Sea Level PressureIn, Mean Sea Level PressureIn, Min Sea Level PressureIn, Max VisibilityMiles, Mean VisibilityMiles, Min VisibilityMiles, Max Wind SpeedMPH, Mean Wind SpeedMPH, Max Gust SpeedMPH,PrecipitationIn, CloudCover, Events, WindDirDegrees
2012-11-1,61,54,46,44,42,40,87,74,52,30.02,29.84,29.75,10,9,0,12,3,,0.01,5,Fog-Rain,332
2012-11-2,57,47,37,44,40,34,86,78,62,30.10,30.06,30.02,10,10,9,9,3,,0.00,3,,87
2012-11-3,57,50,46,47,44,42,87,80,67,30.15,30.06,30.01,10,7,0,7,1,,0.03,7,Fog-Rain,84
2012-11-4,64,56,48,48,45,43,87,75,52,30.28,30.25,30.18,10,10,10,9,4,78,0.00,3,,94
2012-11-5,62,52,39,49,40,33,87,66,44,30.30,30.24,30.20,10,9,2,24,8,31,0.00,1,,321
2012-11-6,59,47,35,44,37,30,83,66,42,30.19,30.03,29.91,10,10,10,24,3,31,0.00,0,,329
2012-11-7,53,42,30,35,30,24,76,58,41,30.06,30.02,29.95,10,10,10,22,15,28,0.00,2,,324
2012-11-8,50,40,30,34,28,22,82,70,36,29.94,29.81,29.75,10,9,2,12,3,,0.01,5,Snow,310
2012-11-9,46,36,27,31,28,22,82,74,46,29.92,29.85,29.79,10,8,2,14,4,,0.00,7,Snow,82
2012-11-10,39,34,28,31,28,24,86,75,60,30.22,30.03,29.89,10,7,0,9,2,,0.00,8,Fog-Snow,121
2012-11-11,39,32,26,29,26,19,85,76,55,30.30,30.25,30.19,10,6,1,8,3,,0.19,7,Snow,98
2012-11-12,39,36,33,34,31,28,87,82,75,30.29,30.22,30.15,10,4,1,5,2,,0.04,8,Snow,107
2012-11-13,39,37,35,34,32,30,87,82,75,30.29,30.23,30.16,10,5,1,5,2,,0.00,8,,23
2012-11-14,43,39,35,36,34,30,89,84,76,30.35,30.27,30.18,10,3,0,8,2,,0.00,8,Fog,94
2012-11-15,39,37,35,34,32,30,87,80,75,30.34,30.16,29.98,10,10,4,6,2,,0.00,8,,132
2012-11-16,42,40,39,36,35,33,87,81,70,30.01,29.96,29.88,10,7,5,7,1,,0.00,8,,115
2012-11-17,43,41,35,39,36,30,87,84,76,29.89,29.68,29.55,10,7,3,13,4,16,0.22,8,Rain,144
2012-11-18,46,37,28,39,33,24,86,76,61,29.86,29.79,29.71,10,10,7,13,6,,0.15,6,Rain,98
2012-11-19,54,48,43,45,40,37,83,73,59,29.73,29.64,29.52,10,10,7,12,7,17,0.12,7,Rain,104
2012-11-20,55,46,36,43,37,31,86,75,57,29.74,29.67,29.60,10,10,10,13,6,20,0.00,5,,100
2012-11-21,50,42,34,35,31,27,83,72,48,30.25,29.87,29.60,10,10,10,24,7,30,0.01,3,Rain,313
2012-11-22,46,38,30,30,28,24,82,70,52,30.43,30.39,30.28,10,10,10,8,4,,0.00,2,,101
2012-11-23,42,38,34,36,33,29,93,82,62,30.35,30.17,30.05,10,7,1,6,1,,0.07,7,Rain,93
2012-11-24,48,40,32,36,32,26,87,73,52,30.21,30.14,30.05,10,8,2,18,6,20,0.00,1,,333
2012-11-25,48,36,25,29,24,19,81,65,41,30.35,30.28,30.19,10,10,10,10,5,,0.00,0,,32
2012-11-26,39,30,21,28,24,16,86,78,60,30.34,30.27,30.18,10,8,0,5,1,,0.00,4,Fog-Snow,80
2012-11-27,39,34,28,27,25,22,86,73,60,30.26,30.19,30.08,10,10,10,6,1,,0.00,5,,53
2012-11-28,37,34,30,31,29,26,89,82,65,30.10,29.89,29.79,10,6,0,6,1,,0.03,7,Fog-Rain-Snow,64
2012-11-29,41,37,33,34,31,28,89,84,73,29.88,29.77,29.58,10,6,0,7,1,,0.02,8,Fog-Rain-Snow,107
2012-11-30,51,43,35,38,35,32,93,80,58,29.57,29.53,29.49,10,6,1,10,3,,0.00,7,,89